DateTimeUTC,F1_A11,F1_S11,BsB_S11,BsG_S11,BsR_S11,BbsB_S11,BbsG_S11,BbsR_S11,BaB_A11,BaG_A11,BaR_A11,Tu_S11,T_S11,Uu_S11,U_S11,P_S11,T1_A11
2021-07-25T03:00:00Z,00000200,20000000,,,,,,,0000.08,0000.39,-000.10,18.4,25.2,07.1,04.7,0668.7,31.1
2021-07-25T03:01:00Z,00000200,20000000,,,,,,,-000.29,-000.32,-000.08,18.4,25.2,07.0,04.6,0668.7,31.1
2021-07-25T03:02:00Z,00000200,20000000,,,,,,,-000.13,0000.31,0000.06,18.4,25.3,07.0,04.6,0668.7,31.1
2021-07-25T03:03:00Z,00000200,60000000,,,,,,,0000.50,-000.07,-000.07,18.4,25.3,07.0,04.6,0668.7,31.1
2021-07-25T03:04:00Z,00000200,40000000,0000.50,-000.12,-000.33,-000.16,0000.47,-000.03,-000.19,0000.01,0000.01,18.6,25.1,07.1,04.8,0669.6,31.1
2021-07-25T03:05:00Z,00000200,00000000,-000.21,0000.41,0000.05,-000.38,0000.10,0000.06,-000.30,-000.22,-000.02,18.7,25.1,07.1,04.8,0669.7,31.1
2021-07-25T03:06:00Z,00000200,00000000,0000.31,0000.21,0000.00,0000.56,0000.15,0000.22,0000.64,0000.55,0000.22,18.7,25.1,07.1,04.8,0669.7,31.1
2021-07-25T03:07:00Z,00000200,00000000,0000.34,-000.01,0000.08,0000.43,0000.07,0000.32,-000.40,-000.26,-000.00,18.7,25.1,07.2,04.8,0669.7,31.1
2021-07-25T03:08:00Z,00000200,00000000,-000.36,-000.10,0000.32,0000.98,-000.15,0000.23,0000.22,-000.40,0000.00,18.6,25.0,07.1,04.8,0669.7,31.1
2021-07-25T03:09:00Z,00000200,00000000,-000.68,-000.23,-000.21,0000.11,0000.31,0000.02,-000.13,0000.40,-000.31,18.6,25.0,07.2,04.9,0669.7,31.0
2021-07-25T03:10:00Z,00000200,00000000,0000.06,-000.17,0000.38,0000.19,-000.01,0000.25,0000.38,-000.12,0000.12,18.6,25.0,07.3,04.9,0669.7,31.0
2021-07-25T03:11:00Z,00000200,00000000,-000.46,-000.11,-000.16,0000.34,-000.08,-000.18,-000.00,0000.09,0000.05,18.6,25.0,07.3,05.0,0669.7,31.0
2021-07-25T03:12:00Z,00000200,00000000,0000.77,-000.02,0000.04,-000.08,0000.27,-000.01,-000.12,0000.05,0000.44,18.6,25.0,07.3,04.9,0669.7,31.0
2021-07-25T03:13:00Z,00000200,00000000,0000.33,0000.46,-000.03,0000.08,0000.36,0000.27,0000.01,-000.12,-000.46,18.5,25.0,07.3,04.9,0669.7,31.0
2021-07-25T03:14:00Z,00000200,00000000,-000.02,0000.07,0000.01,0000.71,0000.22,-000.13,0000.15,0000.20,0000.13,18.5,24.9,07.3,04.9,0669.7,31.1
2021-07-25T03:15:00Z,00000200,00000000,0000.71,0000.33,0000.03,-000.02,-000.10,-000.31,0000.21,0000.67,0000.28,18.6,25.0,07.5,05.1,0669.7,31.1
2021-07-25T03:16:00Z,00000200,00000000,0000.76,0000.03,0000.30,0000.25,0000.14,0000.12,0000.25,-000.26,0000.05,18.7,25.0,07.5,05.1,0669.7,31.1
2021-07-25T03:17:00Z,00000200,00000000,0000.06,-000.28,-000.15,0000.71,0000.07,-000.12,-000.38,-000.09,0000.20,18.7,25.0,07.4,05.0,0669.7,31.1
2021-07-25T03:18:00Z,00000200,00000000,0000.11,-000.01,-000.17,-000.15,0000.11,-000.08,0000.08,0000.15,-000.14,18.7,25.0,07.4,05.0,0669.7,31.1
2021-07-25T03:19:00Z,00000200,00000000,-000.20,0000.11,0000.14,-000.31,-000.11,0000.18,-000.02,-000.13,-000.16,18.7,25.0,07.4,05.1,0669.7,31.1
2021-07-25T03:20:00Z,00000200,00000000,-000.27,0000.26,-000.02,-000.19,0000.16,0000.26,0000.22,-000.08,0000.13,18.7,25.0,07.4,05.0,0669.7,31.1
2021-07-25T03:21:00Z,00000200,00000000,0000.28,0000.17,-000.24,0000.14,0000.12,-000.00,0000.12,-000.07,0000.06,18.7,25.0,07.5,05.1,0669.7,31.1
2021-07-25T03:22:00Z,00000200,00000000,0000.30,0000.18,0000.13,0000.06,0000.35,-000.17,-000.37,0000.09,-000.19,18.7,25.0,07.5,05.1,0669.7,31.1
2021-07-25T03:23:00Z,00000200,00000000,0000.32,-000.00,-000.17,0000.36,-000.13,0000.16,0000.03,-000.32,0000.12,18.7,25.0,07.4,05.1,0669.7,31.1
2021-07-25T03:24:00Z,00000200,00000000,0000.06,-000.01,-000.10,0000.33,0000.01,0000.01,0000.06,0000.29,-000.02,18.6,25.0,07.4,05.0,0669.7,31.1
2021-07-25T03:25:00Z,00000200,00010000,0000.94,0000.00,0000.10,0000.41,0000.01,-000.06,-000.15,0000.20,0000.05,18.6,25.0,07.4,05.0,0669.7,31.1
2021-07-25T03:26:00Z,00000200,00000000,0000.50,0000.38,0000.08,0000.15,0000.10,-000.05,-000.06,-000.28,-000.35,18.6,25.0,07.4,05.0,0669.7,31.0
2021-07-25T03:27:00Z,00000200,00000000,-000.21,0000.09,-000.46,0000.42,0000.24,-000.03,0000.29,-000.01,0000.31,18.6,25.0,07.4,05.0,0669.7,31.1
2021-07-25T03:28:00Z,00000200,00000000,0000.66,0000.18,0000.14,0000.71,0000.12,0000.40,0000.00,0000.07,-000.06,18.6,24.9,07.6,05.1,0669.7,31.0
2021-07-25T03:29:00Z,00000200,00000000,-000.46,0000.02,-000.10,0000.14,0000.24,0000.25,0000.25,0000.61,0000.44,18.6,24.9,07.5,05.1,0669.7,31.0
2021-07-25T03:30:00Z,00000200,00000000,0000.78,-000.07,0000.25,0000.10,0000.32,0000.07,0000.10,-000.44,-000.29,18.6,24.9,07.7,05.2,0669.7,31.0
2021-07-25T03:31:00Z,00000200,00000000,-000.17,0000.10,-000.05,0000.41,-000.06,-000.04,-000.39,0000.17,0000.02,18.6,25.0,07.6,05.1,0669.7,31.1
2021-07-25T03:32:00Z,00000200,00000000,0000.46,0000.17,-000.07,-000.32,-000.07,0000.35,0000.38,0000.33,0000.28,18.7,25.0,07.6,05.2,0669.7,31.1
2021-07-25T03:33:00Z,00000200,00000000,-000.20,0000.11,-000.18,0000.52,0000.13,0000.19,-000.24,-000.47,-000.25,18.7,25.0,07.5,05.1,0669.7,31.0
2021-07-25T03:34:00Z,00000200,00000000,-000.41,-000.13,-000.19,-000.02,0000.11,-000.09,-000.27,0000.24,-000.01,18.7,25.0,07.6,05.2,0669.7,31.1
2021-07-25T03:35:00Z,00000200,00000000,0000.30,0000.06,-000.25,0000.09,0000.20,-000.24,-000.06,-000.34,-000.17,18.7,25.0,07.6,05.2,0669.7,31.1
2021-07-25T03:36:00Z,00000200,00000000,-000.58,-000.09,-000.03,0000.23,0000.17,-000.00,0000.22,0000.06,0000.19,18.6,25.0,07.6,05.2,0669.7,31.1
2021-07-25T03:37:00Z,00000200,00000000,-000.60,-000.03,0000.03,-000.02,0000.17,-000.30,0000.41,0000.64,0000.25,18.6,25.0,07.8,05.3,0669.7,31.1
2021-07-25T03:38:00Z,00000200,00000000,0000.80,0000.34,-000.05,-000.12,0000.33,0000.01,-000.06,-000.71,-000.18,18.6,25.0,07.7,05.2,0669.7,31.1
2021-07-25T03:39:00Z,00000200,00000000,0000.04,-000.02,0000.11,0000.58,0000.20,0000.15,0000.20,0000.37,0000.16,18.6,24.9,07.7,05.2,0669.7,31.1
2021-07-25T03:40:00Z,00000200,00000000,0000.52,0000.07,-000.12,0000.29,-000.26,0000.04,-000.23,-000.13,-000.31,18.6,24.9,07.6,05.1,0669.7,31.1
2021-07-25T03:41:00Z,00000200,00000000,0000.56,0000.15,-000.02,-000.22,-000.14,-000.20,0000.10,0000.17,0000.12,18.6,24.9,07.7,05.2,0669.7,31.0
2021-07-25T03:42:00Z,00000200,00000000,0000.64,0000.26,0000.37,0000.11,0000.46,0000.37,0000.28,-000.12,0000.00,18.5,24.9,07.7,05.2,0669.7,31.0
2021-07-25T03:43:00Z,00000200,00000000,-000.35,0000.10,0000.19,0000.22,0000.16,0000.18,-000.41,0000.14,0000.03,18.5,24.9,07.8,05.3,0669.7,31.1
2021-07-25T03:44:00Z,00000200,00000000,0000.48,-000.07,-000.09,0000.56,0000.04,-000.01,0000.31,0000.22,0000.40,18.5,24.9,07.9,05.3,0669.7,31.0
2021-07-25T03:45:00Z,00000200,00000000,0000.21,0000.29,-000.13,0000.44,0000.04,-000.20,0000.33,0000.21,0000.18,18.6,24.9,07.9,05.4,0669.8,31.1
2021-07-25T03:46:00Z,00000200,00000000,0000.02,0000.27,-000.51,-000.19,-000.07,-000.37,-000.16,-000.14,0000.28,18.6,24.9,07.8,05.3,0669.8,31.1
2021-07-25T03:47:00Z,00000200,00000000,0000.37,0000.41,-000.13,-000.10,0000.01,-000.13,0000.35,0000.26,-000.07,18.7,25.0,08.0,05.4,0669.8,31.1
2021-07-25T03:48:00Z,00000200,00000000,0000.09,-000.13,-000.18,0000.24,0000.09,0000.13,0000.05,0000.35,0000.32,18.7,24.9,08.0,05.5,0669.8,31.1
2021-07-25T03:49:00Z,00000200,00000000,0000.73,0000.03,-000.54,0000.55,-000.13,0000.10,0000.03,-000.16,0000.01,18.7,25.0,08.1,05.5,0669.8,31.1
2021-07-25T03:50:00Z,00000200,00000000,0000.62,0000.07,0000.16,0000.59,0000.53,-000.24,0000.31,0000.19,-000.40,18.7,25.0,08.2,05.6,0669.8,31.1
2021-07-25T03:51:00Z,00000200,00000000,-000.05,0000.19,0000.05,-000.25,0000.12,0000.33,0000.04,0000.27,0000.35,18.7,25.0,08.3,05.6,0669.8,31.1
2021-07-25T03:52:00Z,00000200,00000000,-000.38,-000.23,0000.08,-000.50,0000.29,0000.23,0000.02,-000.29,0000.07,18.7,25.0,08.3,05.6,0669.8,31.0
2021-07-25T03:53:00Z,00000200,00000000,0000.12,0000.32,-000.08,-000.16,0000.08,-000.02,-000.06,-000.12,0000.07,18.6,24.9,08.3,05.6,0669.8,31.0
2021-07-25T03:54:00Z,00000200,00000000,0000.13,-000.28,-000.28,-000.03,0000.01,-000.08,0000.15,-000.18,-000.14,18.6,24.9,08.3,05.7,0669.8,31.0
2021-07-25T03:55:00Z,00000200,00000000,0000.09,0000.20,0000.36,-000.05,0000.03,-000.22,-000.57,0000.23,-000.18,18.6,24.9,08.2,05.6,0669.8,31.0
2021-07-25T03:56:00Z,00000200,00000000,0000.62,0000.04,-000.39,-000.04,0000.16,-000.07,0000.21,-000.31,-000.19,18.6,24.9,08.1,05.5,0669.8,31.0
2021-07-25T03:57:00Z,00000200,40000000,,,,,,,-000.49,0000.07,0000.25,18.6,24.9,07.9,05.4,0669.9,31.0
2021-07-25T03:58:00Z,00000200,60000000,,,,,,,0000.22,-000.21,-000.36,18.3,25.0,08.2,05.4,0668.8,31.0
2021-07-25T03:59:00Z,00000200,20000000,,,,,,,-000.36,-000.11,0000.09,18.3,25.1,07.9,05.2,0668.8,31.0
